Accueil
METAR-TAF:

METAR-TAF

Aéroports :

Aéroport de Nevers-Fourchambault

Nevers, France

latitude: 47-00N, longitude: 003-06E, altitude: 180 m

Observation

Le bulletin a été fait il y a 4 heures et 55 minutes, à 18:00 UTC
Vent 4 kt de nord
Température 29°C
Humidité 33%
Pression 1018 hPa
Visibilité 10 km ou plus
pas de nuages en-dessous de 1500 mètres et pas de cumulonimbus.

METAR: LFQG 201800Z AUTO 01004KT CAVOK 29/11 Q1018

Heure: 00:55 (22:55 UTC)


TAF: absent

Observations et prévisions météorologiques de plus de 4000 aéroports (messages METAR et TAF).

Les stations disponibles sont représentées par des disques jaunes et rouges sur la carte.

Passer la souris dessus pour voir le nom de la station.

Cliquer dessus pour voir les observations et prévisions météorologiques.

Pour changer de carte: cliquez sur les boutons verts avec une croix noire pour zoomer, sur le bouton vert avec un tiret pour effectuer un zoom arrière, ou sur les flèches vertes pour les cartes adjacentes.


METAR-TAF: